STARLINK-30512, 57976

Orbit data source: Space-Track

STARLINK-30512, 57976 is a payload satellite owned by SpaceX/Seattle (US) in LEO that was launched on Sat, 30 Sep 2023 UTC via an FALCON 9 launch vehicle from the Air Force Eastern Test Range (AFETR). Payload-class satellites include a variety of spacecraft equipped with specific instruments for various scientific and technological missions. These include communications satellites like Starlink; space stations such as the ISS; scientific satellites like the Hubble; Earth observation satellites from companies like Planet Labs, Umbra, and HawkEye 360; GPS; miniature CubeSats for education and research; and military/defense satellites.

Loading next visibility...
Identifier
57976, 2023-151N
Orbit
LEO
Country
Flag of USUS
Related business
Manufacturer
SpaceX/Seattle
Mission
Operational Commercial Communications
Bus & Motor
STARLINK V2M, Unknown motor
Mass
730 kg wet, ~700 kg dry
Launch date (UTC)
2023-09-30 (3 years ago)
Launch vehicle
FALCON 9
Launch site
Air Force Eastern Test Range (AFETR)
Object type
Payload
Rocket body
Debris
Shape & HBR
Box + 2 Pan, 17.7 m
Radar Cross Section
33.884 m², Large (>1 m²)

Expand to show TLE details & history
Last TLE update: 1 day ago

TLE from 1 day ago
0 STARLINK-30512
1 57976U 23151N   26175.04624473 -.00000101  00000-0  58476-5 0  9995
2 57976  43.0039  95.1775 0001565 269.3721  90.6952 15.27577790152038
Epoch: 2026-06-24T01:06Z
TLE epoch observation values (Epoch: 2026-06-24T01:06:35.544Z)
Latitude
0.00002°
Longitude
166.32034°
Altitude
482.845 km
Speed
7.626 km/s
True Right ascension
06h 20m 42s
True Declination
0° 00' 00"
Sunlit
Object was in daylight at epoch
Visualization orbit readout
Latitude
Unknown
Longitude
Unknown
Altitude
Unknown
Speed
Unknown
Apparent Right ascension
Unknown
Apparent Declination
Unknown
Sunlit
N/A
Visualization observer readout
Local Sidereal Time
13:38:00
Azimuth
Unknown
Elevation
Unknown
Doppler factor
Unknown
Orbital elements
Apogee altitude
486.074 km
Perigee altitude
483.926 km
Semi-major axis
6,863.137 km
Eccentricity
0.00016
Inclination
43.0039°
RAAN
95.1775°
Arg. of periapsis
269.3721°
True anomaly
90.71313°
Mean anomaly
90.6952°
Eccentric anomaly
90.70417°
Mean motion
3.81733 °/min
Orbital period
94.31 mins
BSTAR
0.0000058476
Loading maneuver chart data...
Computing Atmospheric mass density...
Loading historical data...
Loading historical data...
Loading historical data...
Loading historical data...
Loading historical data...
Loading historical data...
Loading historical data...

Documentation

Showing up to 5 results
|